Date,TemperatureHighF,TemperatureAvgF,TemperatureLowF,DewpointHighF,DewpointAvgF,DewpointLowF,HumidityHigh,HumidityAvg,HumidityLow,PressureMaxIn,PressureMinIn,WindSpeedMaxMPH,WindSpeedAvgMPH,GustSpeedMaxMPH,PrecipitationSumIn
2013-3-1,39.7,36.6,35.2,33.2,32.6,32.0,92,86,76,29.67,29.60,6,2,18,0.00
2013-3-2,42.7,37.2,34.8,33.4,31.3,29.6,92,80,60,29.68,29.62,4,1,18,0.00
2013-3-3,39.4,36.0,34.1,33.9,31.5,30.3,94,84,75,29.64,29.57,3,1,18,0.00
2013-3-4,40.0,34.7,31.5,31.6,28.0,24.8,94,77,56,29.69,29.57,5,3,18,0.00
2013-3-5,41.2,36.4,33.3,38.3,32.9,27.8,96,87,79,30.06,29.69,7,3,18,0.09
2013-3-6,40.1,38.1,34.8,36.2,34.8,33.3,96,88,79,30.07,29.92,17,11,21,0.03
2013-3-7,37.6,35.5,34.0,35.8,34.7,33.2,98,97,90,29.91,29.82,17,15,23,0.42
2013-3-8,40.8,35.6,33.1,37.2,33.8,31.7,98,94,70,30.04,29.81,15,12,18,0.61
2013-3-9,38.8,36.6,35.4,33.0,32.1,31.0,88,84,77,30.31,30.04,12,9,20,0.00
2013-3-10,39.5,37.3,35.1,33.8,32.4,31.3,87,83,77,30.41,30.31,7,4,18,0.00
2013-3-11,43.7,39.2,35.5,39.5,36.4,32.0,96,90,80,30.36,30.21,6,3,18,0.00
2013-3-12,46.8,44.5,40.5,46.3,43.5,39.4,98,96,94,30.22,29.79,11,7,18,0.13
2013-3-13,47.7,46.0,43.3,47.4,45.5,42.8,99,98,98,29.80,29.74,12,5,19,0.65
2013-3-14,35.0,30.5,25.3,23.7,15.3,11.4,65,53,44,29.81,29.70,5,3,18,0.00
2013-3-15,37.6,30.3,22.5,29.0,17.2,9.5,75,58,34,29.88,29.68,5,4,12,0.00
2013-3-16,38.1,34.1,30.9,27.9,21.8,17.2,74,61,49,29.88,29.69,4,2,12,0.00
2013-3-17,38.3,32.6,25.3,27.8,20.2,12.1,93,62,41,30.30,29.87,6,2,12,0.00
2013-3-18,32.7,29.1,24.0,27.4,17.4,8.3,91,62,45,30.46,30.27,6,3,12,0.00
2013-3-19,42.3,36.4,30.1,41.8,35.4,27.3,98,96,88,30.27,29.49,13,8,19,0.45
2013-3-20,42.0,34.2,27.8,31.4,26.0,20.3,95,73,48,29.85,29.62,6,3,12,0.00
2013-3-21,40.2,35.1,28.8,33.3,29.7,25.7,96,81,58,29.85,29.57,9,4,12,0.00
2013-3-22,38.2,33.5,30.0,31.6,28.3,24.3,97,82,66,29.75,29.57,3,1,12,0.40
2013-3-23,42.7,35.8,28.6,26.8,22.6,19.5,77,60,40,29.78,29.64,5,3,14,0.04
2013-3-24,43.1,36.5,31.5,29.8,26.0,21.3,86,66,46,29.84,29.76,6,3,9,0.00
2013-3-25,42.9,37.4,31.2,35.7,31.2,27.6,92,79,61,29.77,29.44,12,7,17,0.00
2013-3-26,45.5,39.1,34.6,35.2,29.4,23.1,90,69,41,29.77,29.44,11,4,17,0.01
2013-3-27,49.6,41.3,31.4,38.5,31.7,26.0,90,70,43,29.84,29.75,7,2,9,0.00
2013-3-28,46.6,40.7,36.9,38.4,34.5,28.9,95,80,52,30.02,29.83,9,3,11,0.07
2013-3-29,53.6,43.8,35.7,40.6,35.9,32.2,87,74,54,30.05,30.00,4,1,9,0.00
2013-3-30,51.8,43.8,38.7,39.6,36.4,32.3,92,76,48,30.12,30.03,5,2,8,0.00
2013-3-31,48.5,42.5,32.0,42.9,38.7,30.2,95,87,76,30.15,29.81,12,3,14,0.03